User: anonymous   Login
Location: Caltech
(34.1382°N, 118.1253°W)
Time: 23:20:40
(UTC-08:00)
Language:

NOAA 19 - Orbit

View from above orbital plane
View from above orbital plane
View from above satellite
View from above satellite

Ground track
Ground track

The orbit data is extracted from the following two-line orbital elements,

1 33591U 09005A   17349.92856363 +.00000111 +00000-0 +85501-4 0  9997
2 33591 099.1182 319.5596 0014785 119.3596 240.9053 14.12237627456047
Epoch (UTC): 15 December 2017 22:17:07
Eccentricity: 0.0014785
inclination: 99.1182°
perigee height: 841 km
apogee height: 862 km
right ascension of ascending node: 319.5596°
argument of perigee: 119.3596°
revolutions per day: 14.12237627
mean anomaly at epoch: 240.9053°
orbit number at epoch: 45604

The dashed part of the orbit path shows where the satellite is in the earth's shadow,  

DLR